Content
SEND FEEDBACK

Daily
Averages
Monthly
Summary
United States of America

ANN ARBOR, MICHIGAN


Home > North America > United States > Michigan
Elevation: 759 feet     Latitude: 42 17N     Longitude: 083 43W

WEATHER
 
SELECT A DAY
Number of Records: 203,415;   Date Range: 1/1/95 - 7/29/14
 
SHARE

PRINT THIS DATA

[ ← Previous Day ]
WEATHER ALMANAC - APRIL 25, 2014
[ Next Day → ]
[ °C ]   °F
Weather ElementAverageHighLow
Temperature46.5 °F55.9 °F (6:53 pm)39.9 °F (11:53 pm)
Dewpoint37 °F43 °F (4:53 pm)21 °F (1:53 am)
Humidity71.6 %86 % (9:53 am)39 % (1:53 am)
Barometer29.73 in29.83 in (1:53 am)29.66 in (10:19 am)
Wind Speed7 mph13.8 mph (3:53 pm)
Wind Gust21.9 mph (2:53 pm)
Weather ElementAverage
Visibility7.9 mi
Wind DirectionSSW (191.2 °)

Weather ElementTotal
Precipitation0.51 in
Heating Degree Days17.1 (Base 65)
Averaged from 34 records on April 25, 2014
WEATHER CONDITIONS BREAKOUT
WIND DIRECTION BREAKOUT
WEATHER BY HOUR - APRIL 25, 2014
[ °C ]   °F
Local TimeTemperatureDewpointHumidityBarometerVisibilityWind DirectionWind SpeedGust SpeedPrecipitationEventsConditions
1:53 AM45.0 °F21.0 °F39 %29.83 in10.0 miEast (80°)9.2 mphClear
2:53 AM45.0 °F21.9 °F40 %29.79 in10.0 miEast (90°)9.2 mphClear
3:53 AM45.0 °F21.9 °F40 %29.76 in10.0 miEast (90°)9.2 mphClear
4:53 AM46.0 °F23.0 °F40 %29.73 in10.0 miEast (90°)8.1 mphClear
5:53 AM46.9 °F24.1 °F41 %29.70 in10.0 miEast (80°)9.2 mphOvercast
6:53 AM46.9 °F25.0 °F42 %29.69 in10.0 miEast (80°)8.1 mphOvercast
7:53 AM45.0 °F30.9 °F58 %29.69 in5.0 miEast (90°)6.9 mph0.01 inRainLight Rain
8:53 AM44.1 °F37.0 °F76 %29.70 in10.0 miCalm0.05 inRainLight Rain
9:53 AM43.0 °F39.0 °F86 %29.68 in4.0 miENE (60°)4.6 mph0.08 inRainLight Rain
10:19 AM44.1 °F39.0 °F82 %29.66 in5.0 miNE (40°)3.5 mph0.04 inRainLight Rain
10:32 AM43.0 °F39.0 °F86 %29.67 in4.0 miCalm0.06 inRainRain
10:39 AM44.1 °F39.0 °F82 %29.67 in4.0 miNE (50°)3.5 mph0.07 inRainRain
10:53 AM44.1 °F39.0 °F82 %29.68 in3.0 miNorth (10°)3.5 mph0.10 inRainRain
11:53 AM45.0 °F39.9 °F82 %29.69 in8.0 miNNW (330°)3.5 mph0.04 inRainLight Rain
12:10 PM45.0 °F41.0 °F86 %29.68 in6.0 miCalm0.01 inRainLight Rain
12:14 PM45.0 °F41.0 °F86 %29.68 in7.0 miWNW (300°)3.5 mph0.01 inRainLight Rain
12:53 PM46.0 °F42.1 °F86 %29.70 in6.0 miNNW (340°)10.4 mph0.04 inRainLight Rain
1:08 PM46.0 °F42.1 °F86 %29.69 in10.0 miVariable3.5 mph0.00 inOvercast
1:27 PM46.0 °F42.1 °F86 %29.69 in10.0 miWNW (300°)9.2 mph0.00 inOvercast
1:53 PM46.0 °F42.1 °F86 %29.72 in10.0 miNW (320°)9.2 mph0.00 inOvercast
2:45 PM46.0 °F42.1 °F86 %29.73 in6.0 miNW (310°)9.2 mphOvercast
2:53 PM45.0 °F41.0 °F86 %29.75 in6.0 miNW (310°)11.5 mph21.9 mphOvercast
3:24 PM46.0 °F41.0 °F83 %29.74 in5.0 miNW (310°)10.4 mphHaze
3:53 PM46.9 °F42.1 °F83 %29.75 in6.0 miNW (320°)13.8 mph19.6 mphHaze
4:53 PM48.9 °F43.0 °F80 %29.77 in7.0 miNW (320°)10.4 mphOvercast
5:15 PM51.1 °F43.0 °F74 %29.76 in8.0 miNW (320°)12.7 mph19.6 mphMostly Cloudy
5:33 PM53.1 °F43.0 °F69 %29.76 in10.0 miWNW (300°)9.2 mph20.7 mphScattered Clouds
5:53 PM54.0 °F43.0 °F66 %29.76 in10.0 miWNW (300°)10.4 mphPartly Cloudy
6:53 PM55.9 °F42.1 °F60 %29.78 in10.0 miNW (310°)11.5 mphClear
7:53 PM55.9 °F39.0 °F53 %29.78 in10.0 miNW (310°)5.8 mphClear
8:53 PM48.9 °F37.9 °F66 %29.81 in10.0 miWest (280°)5.8 mphClear
9:53 PM44.1 °F37.0 °F76 %29.83 in10.0 miWSW (250°)6.9 mphClear
10:53 PM44.1 °F37.0 °F76 %29.83 in10.0 miWSW (240°)3.5 mphClear
11:53 PM39.9 °F36.0 °F86 %29.83 in10.0 miWest (270°)3.5 mphClear
Hourly data recorded from KARB, located miles away from Ann Arbor, Michigan







STORIES FROM OUR PARTNERS